Home > Weather > Des Moines > Past weeks

Flag for U.S.A. Weather for the Past 2 Weeks in Des Moines, Iowa, U.S.A.

Now
15 °F

Overcast.


Feels Like: 2 °F
Forecast: 15 / 31 °F
Wind: 10 mph from Southeast

Location: Des Moines International Airport

Current Time: Feb 13, 2016 at 8:23:35 PM

Latest Report: Feb 13, 2016 at 6:54 PM


Visibility: 10 mi

Pressure: 30.44 "Hg

Humidity: 51%

Dew point: 0 °F

Location of Des MoinesLocation

Historic Weather in Des Moines — Graph

°F

Des Moines Temperature Yesterday

Maximum temperature yesterday: 20 °F (at 2:54 AM)
Minimum temperature yesterday: 5 °F (at 11:54 PM)
Average temperature yesterday: 16 °F

High & Low Weather Summary for the Past Weeks

 TemperatureHumidityPressure
High49 °F (Jan 30, 1:54 PM)93% (Feb 1, 6:54 AM)30.73 "Hg (Feb 1, 6:54 AM)
Low2 °F (Feb 13, 2:54 AM)43% (Feb 11, 12:54 PM)29.45 "Hg (Feb 2, 9:54 PM)
Average26 °F72%30.08 "Hg
* Reported Jan 29 6:54 PM — Feb 13 6:54 PM, Des Moines, Weather by CustomWeather, © 2016

Note: Actual official high and low records may vary slightly from our data, if they occured in-between our weather recording intervals... More about our weather records

Advertising

Des Moines Weather History for the Previous 24 Hours

 ConditionsComfort  
Time TempWeatherWind HumidityBarometerVisibility
6:54 PM
Sat, Feb 13
15 °FOvercast.10 mph51%30.44 "Hg10 mi
5:54 PM15 °FOvercast.12 mph49%30.46 "Hg10 mi
4:54 PM15 °FMostly cloudy.9 mph46%30.48 "Hg10 mi
3:54 PM14 °FMostly cloudy.10 mph49%30.52 "Hg10 mi
2:54 PM14 °FOvercast.9 mph49%30.55 "Hg10 mi
1:54 PM12 °FMostly cloudy.8 mph48%30.59 "Hg10 mi
12:54 PM11 °FMostly cloudy.8 mph51%30.63 "Hg10 mi
11:54 AM10 °FMostly cloudy.8 mph53%30.66 "Hg10 mi
10:54 AM9 °FPartly sunny.6 mph52%30.68 "Hg10 mi
9:54 AM8 °FPartly sunny.5 mph52%30.71 "Hg10 mi
8:54 AM6 °FBroken clouds.No wind66%30.71 "Hg10 mi
7:54 AM4 °FMostly cloudy.3 mph69%30.73 "Hg10 mi
6:54 AM4 °FPassing clouds.No wind66%30.70 "Hg10 mi
5:54 AM4 °FOvercast.5 mph66%30.70 "Hg10 mi
4:54 AM3 °FPartly cloudy.5 mph69%30.69 "Hg10 mi
3:54 AM3 °FPassing clouds.6 mph69%30.69 "Hg10 mi
2:54 AM2 °FPassing clouds.7 mph72%30.71 "Hg10 mi
1:54 AM3 °FClear.6 mph72%30.71 "Hg10 mi
12:54 AM4 °FClear.6 mph69%30.70 "Hg10 mi
11:54 PM
Fri, Feb 12
5 °FClear.7 mph69%30.70 "Hg10 mi
10:54 PM6 °FClear.7 mph66%30.68 "Hg10 mi
9:54 PM7 °FPassing clouds.8 mph66%30.68 "Hg10 mi
8:54 PM8 °FClear.8 mph66%30.66 "Hg10 mi
Weather by CustomWeather, © 2016

See weather overviewHow to use our weather pages